AZU3901 SBSV-SBSG

Flight info

Callsign AZU3901
Flight time 1h 14m
Altitude 35000
Route ASGIK UZ73 ESMIG UZ72 TOGUN
Aircraft A21N/M-SDE2E3FGHIRWXY/LB1

Departure

Time 2026-05-03 23:06
Airport Deputado Luiz Eduardo Magalhães International Airport (SBSV)

Arrival

Time 2026-05-04 00:21
Airport Rio Grande do Norte/São Gonçalo do Amarante–Governador Aluízio Alves International Airport (SBSG)
Time Latitude Longitude Altitude Speed Heading
2026-05-03 22:50 -12.91337 -38.33271 49 ft 0 kts 173°
2026-05-03 23:00 -12.91325 -38.33273 47 ft 4 kts 173°
2026-05-03 23:00 -12.91302 -38.33274 46 ft 4 kts 193°
2026-05-03 23:00 -12.91283 -38.33261 46 ft 4 kts 242°
2026-05-03 23:01 -12.91277 -38.33245 49 ft 0 kts 257°
2026-05-03 23:04 -12.91277 -38.33248 48 ft 1 kts 257°
2026-05-03 23:04 -12.91281 -38.33266 49 ft 4 kts 260°
2026-05-03 23:04 -12.91276 -38.33299 49 ft 6 kts 302°
2026-05-03 23:04 -12.91234 -38.33326 49 ft 8 kts 323°
2026-05-03 23:05 -12.91192 -38.33380 49 ft 11 kts 301°
2026-05-03 23:05 -12.91147 -38.33439 49 ft 11 kts 342°
2026-05-03 23:05 -12.91091 -38.33407 48 ft 5 kts 71°
2026-05-03 23:05 -12.91085 -38.33386 48 ft 21 kts 75°
2026-05-03 23:06 -12.91000 -38.32971 51 ft 95 kts 78°
2026-05-03 23:06 -12.90828 -38.32093 54 ft 155 kts 79°
2026-05-03 23:06 -12.90574 -38.30929 422 ft 169 kts 78°
2026-05-03 23:06 -12.90310 -38.29762 1070 ft 167 kts 80°
2026-05-03 23:07 -12.90049 -38.28601 1722 ft 170 kts 81°
2026-05-03 23:07 -12.89672 -38.27399 2160 ft 188 kts 64°
2026-05-03 23:07 -12.88667 -38.26423 2594 ft 217 kts 30°
2026-05-03 23:07 -12.87118 -38.26160 3082 ft 242 kts 357°
2026-05-03 23:08 -12.85360 -38.26422 3522 ft 266 kts 352°
2026-05-03 23:08 -12.83492 -38.26751 4167 ft 278 kts 352°
2026-05-03 23:08 -12.81592 -38.27072 4970 ft 282 kts 353°
2026-05-03 23:08 -12.79636 -38.27388 5780 ft 286 kts 353°
2026-05-03 23:09 -12.77659 -38.27698 6569 ft 290 kts 354°
2026-05-03 23:09 -12.75657 -38.28007 7337 ft 292 kts 354°
2026-05-03 23:09 -12.73634 -38.28316 8127 ft 295 kts 354°
2026-05-03 23:09 -12.71594 -38.28538 8920 ft 295 kts
2026-05-03 23:10 -12.69585 -38.28169 9701 ft 294 kts 19°
2026-05-03 23:10 -12.67623 -38.27498 10323 ft 303 kts 21°
2026-05-03 23:10 -12.65571 -38.26761 10633 ft 322 kts 21°
2026-05-03 23:10 -12.63394 -38.25991 10944 ft 339 kts 21°
2026-05-03 23:11 -12.61127 -38.25205 11466 ft 348 kts 21°
2026-05-03 23:11 -12.58818 -38.24412 12101 ft 352 kts 21°
2026-05-03 23:11 -12.56477 -38.23614 12723 ft 356 kts 21°
2026-05-03 23:11 -12.54107 -38.22810 13345 ft 360 kts 21°
2026-05-03 23:12 -12.51716 -38.21999 13934 ft 364 kts 21°
2026-05-03 23:12 -12.49295 -38.21178 14461 ft 368 kts 21°
2026-05-03 23:12 -12.46858 -38.20350 15002 ft 371 kts 21°
2026-05-03 23:12 -12.44402 -38.19516 15541 ft 374 kts 21°
2026-05-03 23:13 -12.41927 -38.18671 16073 ft 377 kts 21°
2026-05-03 23:13 -12.39420 -38.17817 16599 ft 380 kts 21°
2026-05-03 23:13 -12.36904 -38.16964 17122 ft 383 kts 20°
2026-05-03 23:13 -12.34393 -38.16114 17632 ft 386 kts 20°
2026-05-03 23:14 -12.31836 -38.15243 18135 ft 389 kts 20°
2026-05-03 23:14 -12.29264 -38.14368 18594 ft 392 kts 20°
2026-05-03 23:14 -12.26665 -38.13485 19035 ft 394 kts 20°
2026-05-03 23:14 -12.24050 -38.12597 19476 ft 397 kts 20°
2026-05-03 23:15 -12.21421 -38.11703 19917 ft 399 kts 20°
2026-05-03 23:15 -12.18777 -38.10807 20358 ft 402 kts 20°
2026-05-03 23:15 -12.16112 -38.09906 20804 ft 404 kts 20°
2026-05-03 23:15 -12.13432 -38.08996 21243 ft 407 kts 20°
2026-05-03 23:16 -12.10741 -38.08081 21699 ft 409 kts 20°
2026-05-03 23:16 -12.08034 -38.07160 22145 ft 412 kts 20°
2026-05-03 23:16 -12.05306 -38.06237 22587 ft 414 kts 20°
2026-05-03 23:16 -12.02556 -38.05308 23021 ft 417 kts 20°
2026-05-03 23:17 -11.99792 -38.04374 23449 ft 420 kts 20°
2026-05-03 23:17 -11.97011 -38.03432 23825 ft 422 kts 20°
2026-05-03 23:17 -11.94222 -38.02489 24166 ft 424 kts 20°
2026-05-03 23:17 -11.91413 -38.01538 24513 ft 426 kts 19°
2026-05-03 23:18 -11.88629 -38.00596 24850 ft 428 kts 19°
2026-05-03 23:18 -11.85795 -37.99636 25193 ft 430 kts 19°
2026-05-03 23:18 -11.82951 -37.98670 25532 ft 432 kts 19°
2026-05-03 23:18 -11.80097 -37.97705 25865 ft 433 kts 19°
2026-05-03 23:19 -11.77222 -37.96736 26190 ft 435 kts 19°
2026-05-03 23:19 -11.74342 -37.95767 26511 ft 437 kts 19°
2026-05-03 23:19 -11.71444 -37.94793 26829 ft 439 kts 19°
2026-05-03 23:19 -11.68534 -37.93812 27152 ft 441 kts 19°
2026-05-03 23:20 -11.65616 -37.92828 27455 ft 443 kts 19°
2026-05-03 23:20 -11.62688 -37.91841 27768 ft 444 kts 19°
2026-05-03 23:20 -11.59745 -37.90849 28053 ft 446 kts 19°
2026-05-03 23:20 -11.56794 -37.89853 28335 ft 448 kts 19°
2026-05-03 23:21 -11.53827 -37.88852 28616 ft 450 kts 19°
2026-05-03 23:21 -11.50851 -37.87847 28896 ft 451 kts 18°
2026-05-03 23:21 -11.47857 -37.86837 29170 ft 453 kts 18°
2026-05-03 23:21 -11.44819 -37.85935 29446 ft 455 kts 15°
2026-05-03 23:22 -11.38675 -37.84306 29993 ft 458 kts 14°
2026-05-03 23:22 -11.35580 -37.83489 30236 ft 460 kts 14°
2026-05-03 23:22 -11.32474 -37.82669 30451 ft 462 kts 14°
2026-05-03 23:23 -11.29353 -37.81843 30648 ft 464 kts 14°
2026-05-03 23:23 -11.26216 -37.81013 30839 ft 466 kts 14°
2026-05-03 23:23 -11.23105 -37.80191 31026 ft 468 kts 14°
2026-05-03 23:23 -11.19948 -37.79358 31251 ft 469 kts 14°
2026-05-03 23:24 -11.16786 -37.78524 31510 ft 469 kts 14°
2026-05-03 23:24 -11.13622 -37.77689 31779 ft 469 kts 14°
2026-05-03 23:24 -11.10460 -37.76853 32045 ft 469 kts 14°
2026-05-03 23:24 -11.07304 -37.76019 32309 ft 469 kts 14°
2026-05-03 23:25 -11.04149 -37.75187 32568 ft 468 kts 14°
2026-05-03 23:25 -11.00996 -37.74357 32789 ft 469 kts 13°
2026-05-03 23:25 -10.97833 -37.73523 33007 ft 469 kts 13°
2026-05-03 23:25 -10.94672 -37.72687 33236 ft 469 kts 13°
2026-05-03 23:26 -10.91514 -37.71853 33471 ft 469 kts 13°
2026-05-03 23:26 -10.88353 -37.71018 33719 ft 469 kts 13°
2026-05-03 23:26 -10.85199 -37.70187 33953 ft 468 kts 13°
2026-05-03 23:26 -10.82041 -37.69355 34150 ft 468 kts 13°
2026-05-03 23:27 -10.78892 -37.68526 34337 ft 467 kts 13°
2026-05-03 23:27 -10.75740 -37.67696 34522 ft 467 kts 13°
2026-05-03 23:27 -10.72596 -37.66868 34698 ft 467 kts 12°
2026-05-03 23:27 -10.69450 -37.66040 34880 ft 466 kts 12°
2026-05-03 23:28 -10.66311 -37.65215 35047 ft 467 kts 12°
2026-05-03 23:28 -10.63169 -37.64386 35087 ft 466 kts 12°
2026-05-03 23:28 -10.56899 -37.62732 35060 ft 467 kts 12°
2026-05-03 23:29 -10.50595 -37.61074 35057 ft 475 kts 12°
2026-05-03 23:29 -10.44144 -37.59380 35050 ft 482 kts 11°
2026-05-03 23:30 -10.37620 -37.57666 35059 ft 484 kts 12°
2026-05-03 23:30 -10.31092 -37.55950 35051 ft 485 kts 11°
2026-05-03 23:31 -10.24559 -37.54236 35048 ft 484 kts 11°
2026-05-03 23:31 -10.19092 -37.52803 35047 ft 485 kts 12°
2026-05-03 23:32 -10.12571 -37.51093 35043 ft 484 kts 11°
2026-05-03 23:32 -10.06046 -37.49383 35044 ft 484 kts 11°
2026-05-03 23:33 -9.99525 -37.47673 35039 ft 484 kts 11°
2026-05-03 23:33 -9.93043 -37.45976 35047 ft 484 kts 11°
2026-05-03 23:34 -9.86527 -37.44273 35045 ft 483 kts 11°
2026-05-03 23:34 -9.80006 -37.42569 35035 ft 484 kts 11°
2026-05-03 23:35 -9.73493 -37.40864 35037 ft 483 kts 11°
2026-05-03 23:35 -9.66979 -37.39160 35039 ft 484 kts 11°
2026-05-03 23:36 -9.60469 -37.37457 35032 ft 482 kts 12°
2026-05-03 23:36 -9.53976 -37.35762 35043 ft 482 kts 12°
2026-05-03 23:37 -9.47515 -37.34075 35040 ft 476 kts 12°
2026-05-03 23:37 -9.41116 -37.32407 35037 ft 474 kts 12°
2026-05-03 23:38 -9.34731 -37.30742 35047 ft 474 kts 12°
2026-05-03 23:38 -9.28344 -37.29076 35042 ft 474 kts 12°
2026-05-03 23:39 -9.21952 -37.27404 35049 ft 474 kts 12°
2026-05-03 23:39 -9.15602 -37.25743 35052 ft 474 kts 12°
2026-05-03 23:40 -9.09215 -37.24081 35053 ft 474 kts 12°
2026-05-03 23:40 -9.02811 -37.22415 35052 ft 475 kts 12°
2026-05-03 23:41 -8.96405 -37.20749 35044 ft 475 kts 12°
2026-05-03 23:41 -8.90007 -37.19084 35044 ft 475 kts 12°
2026-05-03 23:42 -8.83597 -37.17415 35047 ft 475 kts 12°
2026-05-03 23:42 -8.77192 -37.15750 35047 ft 475 kts 12°
2026-05-03 23:43 -8.70792 -37.14084 35044 ft 474 kts 12°
2026-05-03 23:43 -8.64411 -37.12429 35057 ft 473 kts 12°
2026-05-03 23:44 -8.58032 -37.10778 35050 ft 473 kts 12°
2026-05-03 23:44 -8.51657 -37.09120 35057 ft 473 kts 12°
2026-05-03 23:45 -8.45327 -37.07471 35056 ft 473 kts 12°
2026-05-03 23:45 -8.38959 -37.05815 35050 ft 473 kts 12°
2026-05-03 23:46 -8.32586 -37.04161 35056 ft 473 kts 12°
2026-05-03 23:46 -8.26213 -37.02509 35051 ft 473 kts 12°
2026-05-03 23:47 -8.19841 -37.00857 35049 ft 473 kts 12°
2026-05-03 23:47 -8.13471 -36.99204 35052 ft 472 kts 12°
2026-05-03 23:48 -8.07106 -36.97555 35050 ft 472 kts 12°
2026-05-03 23:48 -8.00745 -36.95904 35051 ft 472 kts 12°
2026-05-03 23:49 -7.94367 -36.94254 35048 ft 472 kts 12°
2026-05-03 23:49 -7.88035 -36.92616 35033 ft 472 kts 12°
2026-05-03 23:50 -7.82697 -36.91236 35041 ft 473 kts 12°
2026-05-03 23:50 -7.75297 -36.89320 35046 ft 473 kts 12°
2026-05-03 23:51 -7.68925 -36.87671 35034 ft 473 kts 12°
2026-05-03 23:51 -7.62538 -36.86020 35043 ft 473 kts 12°
2026-05-03 23:52 -7.56171 -36.84371 35044 ft 473 kts 12°
2026-05-03 23:52 -7.49788 -36.82723 35032 ft 474 kts 12°
2026-05-03 23:53 -7.43395 -36.81073 35037 ft 474 kts 12°
2026-05-03 23:53 -7.37060 -36.79435 35036 ft 474 kts 12°
2026-05-03 23:54 -7.30678 -36.77786 35040 ft 474 kts 12°
2026-05-03 23:54 -7.24300 -36.76137 35038 ft 470 kts 12°
2026-05-03 23:55 -7.21173 -36.75326 34910 ft 458 kts 12°
2026-05-03 23:55 -7.18093 -36.74530 34457 ft 455 kts 12°
2026-05-03 23:55 -7.15003 -36.73734 33473 ft 462 kts 12°
2026-05-03 23:55 -7.11881 -36.72928 32779 ft 461 kts 13°
2026-05-03 23:56 -7.08790 -36.72126 32291 ft 456 kts 13°
2026-05-03 23:56 -7.05738 -36.71336 31785 ft 451 kts 13°
2026-05-03 23:56 -7.02713 -36.70555 31281 ft 447 kts 13°
2026-05-03 23:56 -6.99714 -36.69780 30789 ft 442 kts 14°
2026-05-03 23:57 -6.96746 -36.69012 30305 ft 439 kts 14°
2026-05-03 23:57 -6.93791 -36.68248 29747 ft 438 kts 14°
2026-05-03 23:57 -6.90838 -36.67485 29170 ft 437 kts 14°
2026-05-03 23:57 -6.87933 -36.66736 28640 ft 435 kts 14°
2026-05-03 23:58 -6.85008 -36.65980 28137 ft 433 kts 14°
2026-05-03 23:58 -6.82097 -36.65229 27649 ft 430 kts 15°
2026-05-03 23:58 -6.79204 -36.64483 27143 ft 428 kts 15°
2026-05-03 23:58 -6.76328 -36.63740 26634 ft 426 kts 15°
2026-05-03 23:59 -6.73464 -36.63000 26142 ft 424 kts 15°
2026-05-03 23:59 -6.70614 -36.62265 25662 ft 420 kts 15°
2026-05-03 23:59 -6.67816 -36.61451 25161 ft 415 kts 23°
2026-05-03 23:59 -6.65253 -36.60182 24678 ft 409 kts 31°
2026-05-04 00:00 -6.62789 -36.58770 24181 ft 405 kts 33°
2026-05-04 00:00 -6.60592 -36.57050 23682 ft 399 kts 46°
2026-05-04 00:00 -6.58671 -36.55057 23149 ft 394 kts 48°
2026-05-04 00:00 -6.56810 -36.53057 22633 ft 389 kts 48°
2026-05-04 00:01 -6.54969 -36.51090 22130 ft 385 kts 48°
2026-05-04 00:01 -6.53163 -36.49172 21628 ft 381 kts 48°
2026-05-04 00:01 -6.51351 -36.47252 21153 ft 377 kts 48°
2026-05-04 00:01 -6.49549 -36.45356 20691 ft 372 kts 48°
2026-05-04 00:02 -6.47770 -36.43485 20238 ft 368 kts 48°
2026-05-04 00:02 -6.46013 -36.41637 19808 ft 363 kts 48°
2026-05-04 00:02 -6.44273 -36.39808 19400 ft 359 kts 48°
2026-05-04 00:02 -6.42559 -36.38004 19000 ft 355 kts 48°
2026-05-04 00:03 -6.40862 -36.36219 18604 ft 351 kts 48°
2026-05-04 00:03 -6.39187 -36.34458 18199 ft 347 kts 48°
2026-05-04 00:03 -6.37529 -36.32714 17767 ft 342 kts 48°
2026-05-04 00:03 -6.35894 -36.30993 17361 ft 338 kts 48°
2026-05-04 00:04 -6.34278 -36.29294 16978 ft 335 kts 47°
2026-05-04 00:04 -6.32668 -36.27600 16601 ft 335 kts 47°
2026-05-04 00:04 -6.31057 -36.25907 16229 ft 335 kts 47°
2026-05-04 00:04 -6.29453 -36.24218 15868 ft 334 kts 47°
2026-05-04 00:05 -6.27852 -36.22535 15527 ft 333 kts 47°
2026-05-04 00:05 -6.26254 -36.20855 15187 ft 332 kts 47°
2026-05-04 00:05 -6.24655 -36.19175 14829 ft 332 kts 47°
2026-05-04 00:05 -6.23076 -36.17517 14463 ft 332 kts 46°
2026-05-04 00:06 -6.21476 -36.15837 14092 ft 333 kts 46°
2026-05-04 00:06 -6.19876 -36.14155 13723 ft 333 kts 46°
2026-05-04 00:06 -6.18280 -36.12476 13337 ft 332 kts 46°
2026-05-04 00:06 -6.16687 -36.10802 12977 ft 331 kts 46°
2026-05-04 00:07 -6.15100 -36.09136 12630 ft 330 kts 46°
2026-05-04 00:07 -6.13514 -36.07470 12264 ft 329 kts 47°
2026-05-04 00:07 -6.11933 -36.05809 11899 ft 329 kts 47°
2026-05-04 00:07 -6.10347 -36.04145 11544 ft 328 kts 47°
2026-05-04 00:08 -6.08799 -36.02519 11202 ft 324 kts 47°
2026-05-04 00:08 -6.07254 -36.00898 10868 ft 319 kts 47°
2026-05-04 00:08 -6.05736 -35.99306 10594 ft 312 kts 47°
2026-05-04 00:08 -6.04254 -35.97750 10374 ft 304 kts 47°
2026-05-04 00:09 -6.02816 -35.96242 10205 ft 294 kts 47°
2026-05-04 00:09 -6.01421 -35.94777 9952 ft 288 kts 47°
2026-05-04 00:09 -6.00043 -35.93330 9607 ft 286 kts 47°
2026-05-04 00:09 -5.98664 -35.91882 9259 ft 287 kts 47°
2026-05-04 00:10 -5.97283 -35.90432 8917 ft 287 kts 48°
2026-05-04 00:10 -5.95900 -35.88977 8583 ft 288 kts 48°
2026-05-04 00:10 -5.94513 -35.87521 8267 ft 288 kts 48°
2026-05-04 00:10 -5.93128 -35.86070 7954 ft 286 kts 48°
2026-05-04 00:11 -5.91763 -35.84635 7655 ft 282 kts 48°
2026-05-04 00:11 -5.90403 -35.83210 7344 ft 283 kts 48°
2026-05-04 00:11 -5.89041 -35.81783 7026 ft 283 kts 48°
2026-05-04 00:11 -5.87699 -35.80376 6720 ft 284 kts 49°
2026-05-04 00:12 -5.86322 -35.78933 6387 ft 284 kts 49°
2026-05-04 00:12 -5.84965 -35.77511 6048 ft 281 kts 49°
2026-05-04 00:12 -5.83619 -35.76100 5719 ft 278 kts 49°
2026-05-04 00:12 -5.82280 -35.74695 5403 ft 277 kts 49°
2026-05-04 00:13 -5.80948 -35.73299 5103 ft 277 kts 50°
2026-05-04 00:13 -5.79615 -35.71902 4791 ft 278 kts 50°
2026-05-04 00:13 -5.78275 -35.70498 4456 ft 278 kts 50°
2026-05-04 00:13 -5.76943 -35.69103 4120 ft 276 kts 50°
2026-05-04 00:14 -5.75622 -35.67719 3789 ft 273 kts 50°
2026-05-04 00:14 -5.74312 -35.66346 3510 ft 270 kts 50°
2026-05-04 00:14 -5.73138 -35.64922 3243 ft 260 kts 65°
2026-05-04 00:14 -5.72647 -35.63248 2973 ft 246 kts 90°
2026-05-04 00:15 -5.72742 -35.61569 2714 ft 238 kts 102°
2026-05-04 00:15 -5.73049 -35.59960 2496 ft 231 kts 105°
2026-05-04 00:15 -5.73378 -35.58423 2465 ft 222 kts 104°
2026-05-04 00:15 -5.73676 -35.56933 2463 ft 209 kts 103°
2026-05-04 00:16 -5.73908 -35.55582 2505 ft 186 kts 103°
2026-05-04 00:16 -5.74112 -35.54349 2518 ft 171 kts 103°
2026-05-04 00:16 -5.74291 -35.53246 2498 ft 156 kts 104°
2026-05-04 00:16 -5.74466 -35.52175 2492 ft 156 kts 104°
2026-05-04 00:17 -5.74641 -35.51096 2509 ft 156 kts 103°
2026-05-04 00:17 -5.74815 -35.50024 2514 ft 154 kts 103°
2026-05-04 00:17 -5.74986 -35.48968 2431 ft 153 kts 103°
2026-05-04 00:17 -5.75155 -35.47925 2245 ft 150 kts 103°
2026-05-04 00:18 -5.75313 -35.46943 2064 ft 137 kts 104°
2026-05-04 00:18 -5.75465 -35.46005 1874 ft 135 kts 104°
2026-05-04 00:18 -5.75617 -35.45074 1691 ft 136 kts 104°
2026-05-04 00:18 -5.75770 -35.44128 1509 ft 137 kts 103°
2026-05-04 00:19 -5.75922 -35.43190 1332 ft 136 kts 103°
2026-05-04 00:19 -5.76074 -35.42250 1152 ft 137 kts 103°
2026-05-04 00:19 -5.76227 -35.41306 981 ft 138 kts 102°
2026-05-04 00:19 -5.76383 -35.40349 800 ft 140 kts 101°
2026-05-04 00:20 -5.76533 -35.39388 626 ft 139 kts 101°
2026-05-04 00:20 -5.76635 -35.38752 472 ft 140 kts 101°
2026-05-04 00:20 -5.76796 -35.37786 315 ft 140 kts 101°
2026-05-04 00:20 -5.76942 -35.36886 279 ft 106 kts 100°
2026-05-04 00:21 -5.77038 -35.36284 278 ft 35 kts 94°
2026-05-04 00:21 -5.77021 -35.36135 278 ft 10 kts 73°
2026-05-04 00:21 -5.76996 -35.36090 277 ft 12 kts 58°
2026-05-04 00:21 -5.76938 -35.36027 278 ft 14 kts
2026-05-04 00:22 -5.76887 -35.36139 277 ft 16 kts 278°
2026-05-04 00:22 -5.76877 -35.36215 277 ft 17 kts 278°
2026-05-04 00:22 -5.76857 -35.36335 278 ft 18 kts 282°
2026-05-04 00:22 -5.76838 -35.36441 278 ft 15 kts 279°
2026-05-04 00:23 -5.76824 -35.36551 278 ft 17 kts 279°
2026-05-04 00:23 -5.76803 -35.36671 278 ft 17 kts 285°
2026-05-04 00:23 -5.76782 -35.36777 278 ft 14 kts 279°
2026-05-04 00:23 -5.76769 -35.36882 278 ft 16 kts 277°
2026-05-04 00:24 -5.76748 -35.36997 278 ft 17 kts 281°
2026-05-04 00:24 -5.76731 -35.37104 278 ft 16 kts 281°
2026-05-04 00:24 -5.76715 -35.37217 277 ft 17 kts 278°
2026-05-04 00:24 -5.76663 -35.37261 277 ft 11 kts 359°
2026-05-04 00:25 -5.76584 -35.37251 277 ft 12 kts 10°
2026-05-04 00:25 -5.76517 -35.37285 277 ft 10 kts 290°
2026-05-04 00:25 -5.76506 -35.37341 277 ft 6 kts 287°
2026-05-04 00:25 -5.76468 -35.37349 277 ft 6 kts
2026-05-04 00:26 -5.76447 -35.37347 277 ft 2 kts
2026-05-04 00:26 -5.76440 -35.37346 277 ft 0 kts 11°
2026-05-04 00:26 -5.76438 -35.37345 277 ft 0 kts 11°